Zurück zum Katalog

COSMOS 1579 COOLANT

LostUNKNOWN
NORAD 27572·DEBRIS·🇷🇺 Russia

Gestartet Jun 29, 1984 von Baikonur Cosmodrome

Loading…

Nächste Überflüge (nächste 24 Stunden)

TLE

VeraltetSource: Space-Track

Epoche: Jan 23, 2018, 05:42 UTC

1 27572U 84069W   18023.23757616 -.00000024  00000-0  10000-3 0  9992
2 27572 101.2757  36.6114 0693755 353.1882   6.0487 11.29583020812775

Verfolge COSMOS 1579 COOLANT in Echtzeit mit AllMySat

Download on the App Store